Probability
9 12 15 16 14 12 12 12 14 18 22 24 23 20 14 8 4 1 1 3 3 2 2 2 1 0 0 0 0 0 0 0 0 0 0 0 0 0 0 0 0 0 0
10 12 14 15 13 12 11 12 15 18 19 20 21 20 16 10 5 2 2 3 3 3 3 3 2 1 0 0 0 0 0 0 0 0 0 0 0 0 0 0 0 0 0
12 12 12 12 11 11 11 10 14 16 15 16 18 17 15 10 5 3 3 3 3 3 3 3 2 1 0 0 0 0 0 0 0 0 0 0 0 0 0 0 0 0 0
12 11 8 6 8 10 10 10 12 14 13 13 13 11 9 7 5 4 2 2 3 3 3 3 3 1 0 0 0 0 0 0 0 0 0 0 0 0 0 0 0 0 0
9 8 4 3 5 7 8 9 11 12 11 11 10 9 6 5 6 5 3 2 1 2 3 3 3 2 1 0 0 0 0 0 0 0 0 0 0 0 0 0 0 0 0
5 5 4 3 4 4 5 6 9 11 11 11 9 7 6 7 7 6 4 2 1 1 3 3 3 3 1 1 0 0 0 0 0 0 0 0 0 0 0 0 0 0 0
3 4 4 4 4 3 2 3 7 10 12 12 10 7 7 8 8 5 3 2 1 1 2 3 3 3 2 2 1 0 0 0 0 0 0 0 0 0 0 0 0 0 0
2 3 3 3 3 3 1 2 6 9 11 13 13 10 10 9 8 4 2 1 1 0 1 2 3 3 3 2 2 1 0 0 0 0 0 0 0 0 0 0 0 0 0
0 1 1 3 4 3 2 4 7 9 10 12 12 12 12 10 8 4 2 2 2 1 0 1 3 3 3 3 2 1 0 0 0 0 0 0 0 0 0 0 0 0 0
0 1 2 3 4 3 3 5 8 10 11 11 11 11 12 11 8 5 4 4 4 2 1 2 3 3 3 4 3 2 1 1 1 0 0 0 0 0 0 0 0 0 0
1 2 3 5 5 4 4 5 8 10 11 10 10 11 11 10 7 5 4 6 6 4 3 4 4 3 4 5 6 4 3 3 2 1 0 0 0 0 0 0 0 0 0
3 4 5 6 7 5 5 6 7 8 9 10 11 11 9 9 8 6 4 6 7 6 6 6 5 4 4 5 7 7 6 5 4 3 1 0 1 1 1 1 0 0 0
5 5 6 8 9 9 8 7 7 7 9 12 14 13 10 10 10 7 4 5 8 9 8 7 6 6 5 6 7 8 8 8 8 6 4 4 6 7 6 5 4 3 1
7 7 8 10 11 11 11 10 8 8 11 14 17 17 15 13 11 8 5 6 8 9 8 7 7 7 7 6 7 9 10 12 12 10 8 9 11 12 11 10 10 8 6
8 9 10 11 11 12 13 13 11 11 12 14 18 19 18 17 15 12 10 11 11 9 7 6 7 7 7 5 5 8 12 14 15 14 13 13 12 10 8 8 8 9 10
11 12 14 15 15 15 16 16 17 16 15 15 18 19 20 20 18 17 17 17 15 10 7 6 7 6 4 2 2 5 11 16 18 18 17 14 10 6 4 3 2 5 8
17 18 19 20 20 19 18 20 22 21 19 19 19 20 21 20 18 18 18 17 14 11 8 8 7 5 3 1 0 2 8 15 18 18 16 13 9 6 5 3 3 4 5
25 25 25 24 23 21 20 21 22 21 21 21 21 20 19 16 14 13 12 12 12 12 12 10 8 6 3 1 0 1 5 10 12 12 11 10 8 6 5 5 6 7 8
30 30 29 27 25 24 22 19 18 17 17 17 17 16 15 12 10 8 7 8 10 12 12 9 8 6 3 1 0 1 4 5 5 5 5 5 4 3 3 4 6 9 10
28 28 27 27 26 25 21 17 14 13 11 11 10 9 9 8 7 6 5 6 8 8 7 5 5 4 3 1 0 1 2 2 2 2 2 2 1 1 1 2 4 6 8
21 21 21 22 22 19 15 13 11 9 8 7 6 5 6 6 6 6 5 5 5 4 3 2 1 1 1 0 0 0 0 1 1 1 1 0 0 0 0 1 2 3 4
15 14 13 15 15 13 10 8 7 6 6 5 5 4 4 5 5 5 4 4 3 3 2 1 0 0 0 0 0 0 0 0 0 0 0 0 0 0 0 0 0 1 1
8 7 6 7 7 6 5 4 3 3 3 3 3 2 2 3 3 2 2 1 1 1 1 0 0 0 0 0 0 0 0 0 0 0 0 0 0 0 0 0 0 0 0
2 2 2 2 2 2 1 1 1 1 1 1 1 0 0 1 1 0 0 0 0 0 0 0 0 0 0 0 0 0 0 0 0 0 0 0 0 0 0 0 0 0 0
0 0 0 1 1 0 0 0 0 0 0 0 0 0 0 0 0 0 0 0 0 0 0 0 0 0 0 0 0 0 0 0 0 0 0 0 0 0 0 0 0 0 0
0 0 0 1 1 0 0 0 0 0 0 0 0 0 0 0 0 0 0 0 0 0 0 0 0 0 0 0 0 0 0 0 0 0 0 0 0 0 0 0 0 0 0
Wind_Speed
8 9 10 11 12 12 12 11 12 11 9 8 8 7 7 6 5 5 6 6 5 5 4 3 4 4 2 2 3 3 5 4 3 3 4 4 3 2 2 2 2 3 4
9 10 11 12 13 13 12 12 12 12 11 8 7 6 6 5 5 5 6 6 6 6 5 3 4 4 3 3 3 3 3 3 3 3 3 4 5 5 3 3 3 2 3
10 11 11 11 12 12 12 11 12 12 11 11 7 7 6 5 6 6 6 6 6 6 4 5 3 3 4 4 3 4 5 3 4 3 3 3 2 4 5 3 3 3 2
10 10 11 11 11 11 11 11 12 12 11 11 10 11 9 8 8 7 6 7 7 6 6 5 4 4 2 3 5 4 3 4 4 4 2 3 3 2 3 5 5 4 3
10 11 11 11 11 11 11 11 11 12 12 12 12 11 9 7 7 7 8 7 7 7 6 6 5 4 3 3 2 3 4 4 4 3 4 3 3 5 3 3 4 5 4
9 10 10 10 10 10 11 11 12 11 12 12 12 12 11 10 9 9 9 8 6 7 8 7 6 5 4 4 3 3 4 3 2 3 3 4 4 4 4 3 4 4 4
10 10 11 11 11 11 11 11 12 12 12 12 12 12 12 11 11 10 9 8 7 7 8 8 7 6 5 5 4 4 3 3 3 4 3 3 3 3 4 4 3 3 3
9 10 11 11 11 12 11 12 13 12 12 12 12 11 11 9 8 10 8 8 6 7 8 9 8 7 7 6 5 5 5 4 4 4 3 3 3 3 4 4 4 4 5
9 9 10 11 11 12 12 12 12 12 12 12 12 11 11 10 9 9 9 7 6 6 8 9 9 8 8 7 7 5 5 5 6 5 6 5 3 4 3 4 5 5 5
8 9 9 10 10 10 11 11 11 11 11 12 11 9 10 10 9 9 9 8 8 7 8 9 9 9 8 8 8 7 6 6 6 4 4 5 5 3 4 4 4 5 6
8 8 8 9 9 10 10 11 11 11 10 11 11 10 10 10 10 9 9 9 8 8 9 9 9 9 9 9 8 8 7 8 7 7 7 7 6 5 5 5 5 5 5
8 8 8 9 9 10 10 10 10 10 10 10 10 10 10 9 10 10 9 9 8 9 9 9 9 9 9 9 10 10 9 9 9 9 8 8 7 7 7 5 6 5 5
8 8 8 8 8 8 9 10 10 10 10 10 10 9 9 9 9 9 8 8 8 8 8 8 8 9 9 9 9 9 9 9 9 9 9 9 8 8 7 7 7 6 6
8 9 8 7 7 6 7 8 9 9 10 10 10 9 9 9 8 7 7 8 8 7 8 8 8 8 7 8 8 9 9 9 9 8 8 9 9 9 8 8 8 8 7
9 9 8 7 7 7 7 7 7 8 9 9 9 9 8 8 7 7 6 6 6 6 6 6 5 5 5 6 7 8 9 9 9 8 8 8 6 5 5 6 6 7 7
8 8 8 8 7 6 6 7 7 7 8 8 7 7 7 7 6 6 6 5 5 4 4 4 4 4 3 0 2 6 7 7 7 7 7 6 5 6 6 7 7 7 8
7 7 7 7 6 6 6 7 7 8 8 7 7 7 7 6 6 5 5 5 4 3 3 3 2 1 1 2 1 3 4 4 4 3 3 4 3 3 5 7 9 9 8
8 8 8 8 8 8 8 8 9 9 8 8 7 7 7 7 6 5 4 4 3 3 3 3 3 3 5 5 1 1 3 2 1 1 1 2 2 2 4 6 6 6 6
9 8 9 9 9 9 10 10 11 10 9 9 8 7 7 7 7 7 6 5 5 5 5 5 6 6 8 9 5 2 1 1 0 1 2 1 1 5 5 5 5 6 5
9 9 10 11 11 10 10 12 11 11 10 10 9 8 8 8 8 8 7 7 7 7 7 8 8 9 9 11 10 5 2 2 1 2 4 7 6 5 5 4 4 5 5
11 11 12 11 11 10 11 13 12 11 10 10 10 10 10 10 10 9 8 8 8 9 9 9 9 9 9 11 13 10 5 4 3 3 3 5 7 6 5 4 3 4 6
13 13 12 12 11 11 13 14 13 11 11 11 12 11 10 10 9 9 8 8 8 9 8 8 7 6 7 9 9 10 9 6 3 3 3 4 5 4 3 2 3 5 6
13 13 14 13 12 11 12 14 12 11 12 12 12 11 11 10 9 9 8 7 6 6 6 5 5 5 5 6 7 6 6 5 3 3 3 1 2 4 3 2 3 6 5
13 13 14 14 13 12 12 12 11 11 12 12 11 10 10 10 9 7 7 7 6 6 5 5 5 5 5 6 6 4 3 2 2 3 1 6 6 5 3 3 4 4 3
12 13 14 14 14 13 12 12 11 11 11 11 10 10 10 10 9 10 10 9 10 9 7 6 6 5 6 8 10 8 7 8 7 8 5 3 3 3 3 4 4 4 4
13 13 14 14 14 13 12 11 10 10 9 9 8 7 7 7 8 9 10 15 12 13 14 14 10 9 9 6 7 7 6 7 9 8 4 4 5 5 5 6 5 5 5
Wind_Direction
176 172 171 172 171 172 177 181 178 172 170 169 172 171 172 173 170 167 159 172 171 167 195 180 166 217 185 189 183 190 177 199 191 197 182 175 187 175 182 201 208 176 187
171 170 174 178 180 178 182 185 181 176 179 176 174 175 166 171 166 165 162 177 174 175 182 186 189 185 169 185 193 216 217 178 201 233 201 186 173 189 172 175 189 191 189
178 177 181 182 183 183 184 187 186 181 182 177 170 161 157 167 166 173 173 177 179 185 185 182 200 179 209 175 199 206 219 201 192 243 256 235 191 158 161 179 176 193 201
180 179 182 185 185 184 184 184 183 182 180 180 180 179 180 182 180 180 169 172 181 186 184 186 190 206 209 162 204 189 217 227 210 190 250 308 350 266 167 181 177 182 202
182 180 182 185 186 185 183 184 181 183 182 187 187 187 190 186 175 178 167 180 178 192 190 188 188 196 202 175 206 172 231 225 239 216 202 208 220 255 264 189 177 186 189
182 180 180 180 183 186 185 183 181 183 186 189 190 193 190 187 178 182 177 186 181 191 192 194 196 202 193 176 191 197 201 244 260 265 238 226 228 229 241 235 218 205 180
181 179 181 180 181 185 187 185 182 185 186 188 190 193 191 188 186 189 187 195 189 191 189 196 197 203 196 194 194 203 215 206 212 238 247 254 263 275 266 265 247 234 197
175 179 181 182 183 184 185 183 183 187 188 191 190 192 192 193 193 196 194 198 203 197 185 195 199 203 202 203 199 212 204 206 219 230 248 253 247 257 259 267 268 248 228
169 174 178 181 183 184 183 183 182 186 189 192 190 193 196 202 201 193 202 204 206 202 192 198 200 202 203 207 206 222 214 208 223 217 208 236 227 240 253 260 268 275 269
167 168 171 175 179 180 180 181 181 184 188 192 191 191 196 200 201 200 202 208 208 208 202 203 204 204 203 205 213 217 210 217 223 240 241 243 240 229 237 244 249 261 275
164 163 165 171 176 177 178 182 181 181 186 191 190 192 193 196 198 201 205 208 212 208 209 209 208 209 209 208 211 226 213 219 221 221 221 228 252 246 236 232 238 241 250
158 159 160 164 172 177 178 179 180 182 186 186 186 191 192 195 199 202 206 208 212 213 212 214 215 217 219 215 214 222 221 221 224 224 225 228 224 227 249 246 243 244 251
156 153 155 160 166 172 176 177 180 182 183 182 184 186 189 192 200 203 203 205 208 213 216 215 220 224 226 223 223 224 227 228 230 229 227 230 232 230 234 239 246 241 233
152 151 149 152 155 159 165 173 178 179 179 178 180 182 188 191 195 197 200 205 208 212 217 220 224 227 230 230 229 227 229 231 231 232 233 234 234 234 237 237 242 250 251
153 151 147 147 151 154 158 163 168 170 172 174 175 176 181 183 184 189 195 196 203 211 214 217 221 229 236 238 237 234 229 228 229 229 232 234 238 254 255 260 248 243 245
151 147 143 142 146 147 150 152 153 155 158 162 163 162 163 166 167 169 172 175 183 197 202 208 210 216 237 241 242 252 247 235 231 229 229 229 220 231 235 262 276 278 262
139 136 136 136 137 138 139 137 135 135 136 138 146 147 147 148 151 158 163 164 167 176 183 184 181 163 47 64 159 233 255 246 242 239 241 246 233 234 245 232 232 245 249
132 127 126 125 124 123 121 121 120 119 118 116 119 128 130 131 133 133 131 131 129 124 118 101 91 78 49 43 43 233 230 252 270 273 268 267 294 322 305 275 260 254 244
118 117 116 114 112 111 112 111 108 106 104 101 99 102 108 109 108 106 102 96 94 90 86 80 74 70 53 38 31 350 157 129 74 21 31 3 20 25 342 288 276 273 270
106 106 106 105 103 105 109 106 102 99 95 92 90 88 90 96 95 91 87 86 87 85 82 75 68 67 58 42 37 17 34 51 54 69 74 61 42 30 357 313 300 293 303
106 104 101 97 98 103 103 98 94 90 91 91 89 85 85 87 89 90 90 93 93 91 88 84 77 68 59 50 40 31 33 33 36 35 36 57 48 35 16 347 342 337 317
107 104 99 94 93 97 99 96 91 92 92 89 86 83 81 82 86 89 90 92 98 100 96 92 86 79 70 56 49 44 40 15 33 27 20 49 38 16 354 351 2 318 290
106 103 101 96 91 90 93 94 94 97 95 91 87 85 83 81 83 87 90 92 89 89 91 90 85 77 70 75 72 66 57 30 19 37 65 19 310 284 241 175 265 277 278
108 107 102 96 92 90 90 93 98 99 97 96 95 94 91 85 75 67 68 67 64 72 74 70 70 73 64 41 26 22 35 31 16 3 191 206 224 247 271 261 249 277 318
104 103 101 98 96 94 91 91 93 95 96 95 95 94 89 85 78 66 49 57 51 38 41 50 49 37 52 37 16 4 9 359 1 325 304 320 331 324 333 331 334 324 319
106 104 100 97 95 93 89 86 87 91 95 98 97 97 99 99 103 102 87 58 67 67 61 49 44 69 58 40 24 17 1 335 319 307 330 348 343 339 340 336 334 335 338